Location: Bessat
(45.8735°N, 1.9924°E)
Time: 19:19:20
(UTC+00:00)

BREEZE-M DEB (TANK) - Pass Details

Date: 11 May 2021
Orbit: 293 x 15375 km, 49.4° (Epoch: 19 June)

Event Time Altitude Azimuth Distance (km) Brightness Sun altitude
Rises 20:22:14 0° 297° (WNW) 7,411 10.3 -10.9°
Reaches altitude 10° 20:29:15 10° 294° (WNW) 4,507 8.7 -11.8°
Maximum altitude 20:37:50 48° 223° (SW) 943 4.0 -12.9°
Enters shadow 20:39:56 20° 155° (SSE) 1,231 4.0 -13.1°
